星链-1276 (STARLINK-1276 )

导读

STARLINK-1276是美国太空探索技术公司(SpaceX)星链(Starlink)卫星互联网项目的一颗卫星,于2020年3月18日发射入轨,星链项目旨在通过部署近地轨道卫星星座,为全球提供高速宽带互联网服务,尤其覆盖偏远和网络基础设施匮乏地区,STARLINK-1276是星链早期部署批次中的一员,共同构建全球卫星互联网组网,推动全球互联覆盖与太空互联网技术发展。

Basic Information
目录编号:
45368
目录名称:
STARLINK-1276
国际标识:
2020-019J
轨道中心:
EARTH
卫星名称:
星链-1276
卫星全名:
星链-1276 (STARLINK-1276 )
卫星状态:
在轨 (已飞行2362 天)
发射日期:
2020-03-18 UTC
国别 :
美国 (US)
星等 :
--
Orbit Information
数据来源 国际轨道数据 AOE轨道数据
星历时间 2026-09-05T07:50:34+0800
19小时前
查看轨道信息
2026-09-02T12:00:00+0800
3天前
查看轨道信息
半长轴 6889.704km 6890.01km
偏心率 0.0001163 0.0001296
轨道倾角 53.071° 53.068°
近地点辐角 92.743° 87.329°
升交点赤经 71.991° 84.906°
平近点角 267.370° 295.603°
近地点 510.765km 510.98km
远地点 512.369km 512.766km
周期 94.855分钟 94.861分钟
每日圈数 15.181055 15.180044
Detailed Information
固有亮度:
5
最大亮度:
2.5
卫星平台:
Starlink V1.0
覆盖范围:
全球
运营商:
太空探索技术公司
运营商所在国:
美国
制造商(研发单位):
太空探索技术公司
制造商所在国:
美国
使用方式:
暂无
Satellite Introduction
星链(Starlink)计划是由太空探索技术公司(SpaceX)提出的一个巨型低轨卫星互联网星座项目,计划在2019年至2024年间在太空搭建由约1.2万颗卫星组成的“星链”网络,其中1584颗将部署在地球上空550千米处的近地轨道,并从2020年开始工作。该卫星仍在工作。
2D Orbit Map
3D Orbit Map
Orbit Altitude Analysis Chart
Orbit Inclination Analysis Chart
Orbit Comprehensive Analysis Chart
View Comprehensive Chart
Conjunction Data List
Event ID Objects TCA Miss Dist (km) Collision Risk Probability Collision Risk Index (CRI) Action
CDM_260831-145504-079404-536824
2026-08-31T
14:55:51+0000
0.780 km
远距离
5.657959E-5 中风险 0.7
CDM_260830-160104-536805-320321
2026-08-30T
16:01:48+0000
1.570 km
极远距离
5.699311E-6 低风险 0.5
CDM_260830-164904-536805-320321
2026-08-30T
16:49:14+0000
1.655 km
极远距离
4.821762E-6 低风险 0.49
CDM_260906-075804-536806-841923
FEMTO-1 (68419)
2026-09-06T
07:58:07+0000
2.409 km
极远距离
1.820283E-6 低风险 0.4
CDM_260906-083404-536806-900422
GEN1A-1 (69004)
2026-09-06T
08:34:29+0000
2.854 km
极远距离
1.165336E-6 低风险 0.36